Location: Coopersdale
(40.3556°N, 78.9372°W)
Time: 15:08:07
(UTC+00:00)

Tiros 1 despin weight - Visible Passes

Search period start: 25 January 2021 00:00
Search period end: 04 February 2021 00:00
Orbit: 594 x 641 km, 48.2° (Epoch: 25 January)

Date Brightness Start Highest point End Pass type
(mag) Time Alt. Az. Time Alt. Az. Time Alt. Az.
25 Jan ? 01:09:56 10° WNW 01:12:03 27° WNW 01:12:03 27° WNW visible
25 Jan ? 23:44:47 10° NW 23:49:10 53° NNE 23:51:03 30° E visible
26 Jan ? 01:26:32 10° WNW 01:28:08 20° W 01:28:08 20° W visible
27 Jan ? 00:01:09 10° WNW 00:05:38 85° NNE 00:07:15 39° ESE visible
27 Jan ? 01:43:36 10° W 01:44:21 13° W 01:44:21 13° W visible
28 Jan ? 00:17:37 10° WNW 00:21:58 53° SW 00:23:38 33° SSE visible
28 Jan ? 22:52:24 10° WNW 22:56:52 64° NNE 23:01:16 10° ESE visible
29 Jan ? 00:34:21 10° WNW 00:38:10 28° SW 00:40:15 19° S visible
29 Jan ? 23:08:48 10° WNW 23:13:17 77° SSW 23:17:42 10° SE visible
30 Jan ? 00:51:51 10° W 00:54:14 14° SW 00:56:34 10° SSW visible
30 Jan ? 23:25:21 10° WNW 23:29:34 41° SW 23:33:43 10° SSE visible
31 Jan ? 23:42:17 10° W 23:45:42 21° SW 23:49:04 10° S visible
02 Feb ? 00:00:59 10° WSW 00:01:42 10° SW 00:02:24 10° SW visible
